TimePST,TemperatureF,Dew PointF,Humidity,Sea Level PressureIn,VisibilityMPH,Wind Direction,Wind SpeedMPH,Gust SpeedMPH,PrecipitationIn,Events,Conditions,WindDirDegrees,DateUTC
12:53 AM,43.0,39.9,89,30.31,8.0,Calm,Calm,-,N/A,,Overcast,0,2013-02-10 08:53:00
1:03 AM,42.8,39.2,87,30.31,8.0,Calm,Calm,-,N/A,,Overcast,0,2013-02-10 09:03:00
1:35 AM,42.8,39.2,87,30.31,8.0,Calm,Calm,-,N/A,,Overcast,0,2013-02-10 09:35:00
1:44 AM,42.8,39.2,87,30.32,8.0,Calm,Calm,-,N/A,,Overcast,0,2013-02-10 09:44:00
1:53 AM,43.0,39.9,89,30.32,7.0,Calm,Calm,-,N/A,,Overcast,0,2013-02-10 09:53:00
2:53 AM,39.9,37.9,93,30.32,3.0,Calm,Calm,-,N/A,,Mostly Cloudy,0,2013-02-10 10:53:00
3:04 AM,37.4,35.6,93,30.32,1.8,Calm,Calm,-,N/A,,Mostly Cloudy,0,2013-02-10 11:04:00
3:12 AM,39.2,35.6,87,30.32,1.2,Calm,Calm,-,N/A,,Mostly Cloudy,0,2013-02-10 11:12:00
3:15 AM,39.2,37.4,93,30.32,2.0,Calm,Calm,-,N/A,,Mostly Cloudy,0,2013-02-10 11:15:00
3:21 AM,37.4,37.4,100,30.32,2.0,Calm,Calm,-,N/A,,Scattered Clouds,0,2013-02-10 11:21:00
3:35 AM,35.6,33.8,93,30.32,1.0,Calm,Calm,-,N/A,,Mist,0,2013-02-10 11:35:00
3:41 AM,35.6,33.8,93,30.32,0.2,Calm,Calm,-,N/A,Fog,Fog,0,2013-02-10 11:41:00
3:48 AM,35.6,33.8,93,30.32,0.5,Calm,Calm,-,N/A,Fog,Fog,0,2013-02-10 11:48:00
3:53 AM,36.0,35.1,97,30.32,0.8,Calm,Calm,-,N/A,,Mist,0,2013-02-10 11:53:00
3:56 AM,37.4,35.6,93,30.32,1.2,Calm,Calm,-,N/A,,Partly Cloudy,0,2013-02-10 11:56:00
4:01 AM,37.4,35.6,93,30.32,2.0,Calm,Calm,-,N/A,,Scattered Clouds,0,2013-02-10 12:01:00
4:03 AM,35.6,33.8,93,30.32,1.5,Calm,Calm,-,N/A,,Mostly Cloudy,0,2013-02-10 12:03:00
4:06 AM,33.8,32.0,93,30.32,0.8,Calm,Calm,-,N/A,,Mostly Cloudy,0,2013-02-10 12:06:00
4:14 AM,33.8,32.0,93,30.33,0.5,Calm,Calm,-,N/A,Fog,Fog,0,2013-02-10 12:14:00
4:25 AM,35.6,33.8,93,30.32,1.0,Calm,Calm,-,N/A,,Overcast,0,2013-02-10 12:25:00
4:35 AM,35.6,35.6,100,30.32,2.5,Calm,Calm,-,N/A,,Overcast,0,2013-02-10 12:35:00
4:41 AM,35.6,33.8,93,30.32,3.0,Calm,Calm,-,N/A,,Overcast,0,2013-02-10 12:41:00
4:45 AM,35.6,33.8,93,30.32,1.8,Calm,Calm,-,N/A,,Overcast,0,2013-02-10 12:45:00
4:53 AM,36.0,35.1,97,30.33,1.0,Calm,Calm,-,N/A,,Overcast,0,2013-02-10 12:53:00
4:59 AM,37.4,35.6,93,30.33,2.0,Calm,Calm,-,N/A,,Overcast,0,2013-02-10 12:59:00
5:07 AM,37.4,37.4,100,30.33,4.0,Calm,Calm,-,N/A,,Overcast,0,2013-02-10 13:07:00
5:40 AM,41.0,37.4,87,30.33,6.0,NNW,3.5,-,N/A,,Overcast,340,2013-02-10 13:40:00
5:53 AM,41.0,39.0,93,30.33,6.0,Calm,Calm,-,N/A,,Overcast,0,2013-02-10 13:53:00
6:53 AM,39.9,37.9,93,30.34,5.0,WNW,5.8,-,N/A,,Mostly Cloudy,290,2013-02-10 14:53:00
7:09 AM,39.2,37.4,93,30.34,4.0,Calm,Calm,-,N/A,,Scattered Clouds,0,2013-02-10 15:09:00
7:30 AM,39.2,37.4,93,30.34,2.5,Calm,Calm,-,N/A,,Clear,0,2013-02-10 15:30:00
7:53 AM,37.0,35.1,93,30.35,1.8,Calm,Calm,-,N/A,,Clear,0,2013-02-10 15:53:00
8:08 AM,39.2,35.6,87,30.35,3.0,Calm,Calm,-,N/A,,Partly Cloudy,0,2013-02-10 16:08:00
8:37 AM,37.4,35.6,93,30.36,3.0,Calm,Calm,-,N/A,,Mostly Cloudy,0,2013-02-10 16:37:00
8:53 AM,39.9,37.0,89,30.36,6.0,Calm,Calm,-,N/A,,Overcast,0,2013-02-10 16:53:00
9:53 AM,42.1,36.0,79,30.36,10.0,Variable,3.5,-,N/A,,Overcast,0,2013-02-10 17:53:00
10:53 AM,44.1,37.0,76,30.37,10.0,WNW,5.8,-,N/A,,Overcast,290,2013-02-10 18:53:00
11:53 AM,44.1,36.0,73,30.35,10.0,WSW,5.8,-,N/A,,Overcast,240,2013-02-10 19:53:00
12:00 PM,44.6,35.6,71,30.35,10.0,SW,4.6,-,N/A,,Overcast,230,2013-02-10 20:00:00
12:49 PM,48.2,35.6,62,30.34,10.0,NNW,4.6,-,N/A,,Overcast,330,2013-02-10 20:49:00
12:53 PM,48.0,36.0,63,30.34,10.0,Calm,Calm,-,N/A,,Mostly Cloudy,0,2013-02-10 20:53:00
1:03 PM,48.2,37.4,66,30.33,10.0,NW,3.5,-,N/A,,Overcast,320,2013-02-10 21:03:00
1:11 PM,46.4,35.6,66,30.33,10.0,Variable,3.5,-,N/A,,Overcast,0,2013-02-10 21:11:00
1:53 PM,46.9,34.0,61,30.33,10.0,WNW,3.5,-,N/A,,Overcast,300,2013-02-10 21:53:00
2:53 PM,46.0,35.1,66,30.33,10.0,NNW,3.5,-,N/A,,Overcast,330,2013-02-10 22:53:00
3:53 PM,46.0,34.0,63,30.33,10.0,NW,5.8,-,N/A,,Overcast,310,2013-02-10 23:53:00
4:53 PM,45.0,34.0,65,30.34,10.0,NW,5.8,-,N/A,,Overcast,320,2013-02-11 00:53:00
5:53 PM,45.0,34.0,65,30.34,10.0,WNW,3.5,-,N/A,,Overcast,300,2013-02-11 01:53:00
6:53 PM,44.1,35.1,71,30.34,10.0,WNW,3.5,-,N/A,,Overcast,290,2013-02-11 02:53:00
7:53 PM,44.1,34.0,68,30.34,10.0,West,4.6,-,N/A,,Overcast,280,2013-02-11 03:53:00
8:53 PM,44.1,35.1,71,30.34,10.0,West,4.6,-,N/A,,Overcast,280,2013-02-11 04:53:00
9:53 PM,44.1,35.1,71,30.34,10.0,NW,4.6,-,N/A,,Overcast,310,2013-02-11 05:53:00
10:14 PM,44.6,35.6,71,30.33,10.0,Calm,Calm,-,N/A,,Overcast,0,2013-02-11 06:14:00
10:53 PM,43.0,35.1,74,30.33,10.0,Calm,Calm,-,N/A,,Overcast,0,2013-02-11 06:53:00
11:40 PM,42.8,35.6,76,30.33,10.0,WNW,4.6,-,N/A,,Overcast,290,2013-02-11 07:40:00
11:53 PM,43.0,35.1,74,30.33,10.0,West,3.5,-,N/A,,Overcast,270,2013-02-11 07:53:00